DW5893 Weather Reports


Display with metric or nautical units.
time (UTC)temp
F
wind
direction
speed
MPH
gust
MPH
rain 1hr
in
rain 24hr
in
rain mn
in
humidity
%
barometer
mb
20260506182538 49 360 8.0 0.0 0.00 0.00 0.00 26 1010.4
20260506182137 49 360 7.0 0.0 0.00 0.00 0.00 27 1010.5
20260506181536 48 360 7.0 0.0 0.00 0.00 0.00 27 1010.5
20260506181037 49 360 8.0 0.0 0.00 0.00 0.00 27 1010.7
20260506180535 49 360 9.0 0.0 0.00 0.00 0.00 26 1010.7
20260506180034 49 360 8.0 0.0 0.00 0.00 0.00 26 1010.8
20260506175533 49 360 8.0 0.0 0.00 0.00 0.00 27 1011.0
20260506175035 49 360 8.0 0.0 0.00 0.00 0.00 27 1010.9
20260506174532 48 360 8.0 0.0 0.00 0.00 0.00 26 1011.0
20260506174034 48 360 6.0 0.0 0.00 0.00 0.00 27 1011.0
20260506173530 47 360 8.0 0.0 0.00 0.00 0.00 28 1011.1
20260506173033 48 360 9.0 0.0 0.00 0.00 0.00 28 1011.2
20260506172528 47 360 8.0 0.0 0.00 0.00 0.00 28 1011.3
20260506172128 48 360 7.0 0.0 0.00 0.00 0.00 29 1011.3
20260506171529 47 360 7.0 0.0 0.00 0.00 0.00 32 1011.3
20260506171031 47 360 8.0 0.0 0.00 0.00 0.00 30 1011.6
20260506170526 47 360 7.0 0.0 0.00 0.00 0.00 30 1011.6
20260506170026 47 360 7.0 0.0 0.00 0.00 0.00 30 1011.7
20260506165525 47 360 7.0 0.0 0.00 0.00 0.00 33 1011.7
20260506165024 47 360 6.0 0.0 0.00 0.00 0.00 32 1011.9
20260506164523 47 5 6.0 0.0 0.00 0.00 0.00 34 1011.9
20260506164025 46 360 6.0 0.0 0.00 0.00 0.00 34 1012.0
20260506163523 46 360 6.0 0.0 0.00 0.00 0.00 33 1012.0
20260506163027 46 360 6.0 0.0 0.00 0.00 0.00 34 1012.0
20260506162524 46 360 6.0 0.0 0.00 0.00 0.00 36 1012.1
20260506162120 44 360 6.0 0.0 0.00 0.00 0.00 39 1012.2
20260506161519 44 360 6.0 0.0 0.00 0.00 0.00 39 1012.2
20260506161017 44 360 5.0 0.0 0.00 0.00 0.00 40 1012.3
20260506160516 44 360 5.0 0.0 0.00 0.00 0.00 40 1012.5
20260506160016 43 360 4.0 0.0 0.00 0.00 0.00 40 1012.5
20260506155514 43 360 2.0 0.0 0.00 0.00 0.00 43 1012.5
20260506155012 42 360 4.0 0.0 0.00 0.00 0.00 44 1012.5
20260506154512 42 360 4.0 0.0 0.00 0.00 0.00 44 1012.6
20260506154016 42 360 4.0 0.0 0.00 0.00 0.00 45 1012.6
20260506153511 41 360 4.0 0.0 0.00 0.00 0.00 45 1012.6
20260506153010 41 360 3.0 0.0 0.00 0.00 0.00 46 1012.7
20260506152509 40 360 4.0 0.0 0.00 0.00 0.00 47 1012.8
20260506152108 40 360 4.0 0.0 0.00 0.00 0.00 48 1012.9
20260506151509 40 360 4.0 0.0 0.00 0.00 0.00 48 1012.9
20260506151007 40 360 4.0 0.0 0.00 0.00 0.00 49 1013.0
20260506150506 39 360 3.0 0.0 0.00 0.00 0.00 48 1013.1
20260506150005 38 360 4.0 0.0 0.00 0.00 0.00 50 1013.1
20260506145504 38 360 4.0 0.0 0.00 0.00 0.00 49 1013.1
20260506145002 37 224 4.0 0.0 0.00 0.00 0.00 49 1013.1
20260506144504 37 360 3.0 0.0 0.00 0.00 0.00 50 1013.1
20260506144001 37 360 3.0 0.0 0.00 0.00 0.00 50 1013.1
20260506143600 36 360 4.0 0.0 0.00 0.00 0.00 50 1013.3
20260506143059 36 360 4.0 0.0 0.00 0.00 0.00 51 1013.3
20260506142559 35 360 3.0 0.0 0.00 0.00 0.00 51 1013.3
20260506142059 35 360 4.0 0.0 0.00 0.00 0.00 52 1013.5
20260506141556 34 241 3.0 0.0 0.00 0.00 0.00 52 1013.5
20260506141055 34 360 3.0 0.0 0.00 0.00 0.00 53 1013.4
20260506140553 33 360 2.0 0.0 0.00 0.00 0.00 54 1013.5
20260506140053 33 225 3.0 0.0 0.00 0.00 0.00 54 1013.4
20260506135552 32 225 3.0 0.0 0.00 0.00 0.00 54 1013.4
20260506135050 32 223 3.0 0.0 0.00 0.00 0.00 54 1013.5
20260506134550 32 360 2.0 0.0 0.00 0.00 0.00 54 1013.5
20260506134049 31 208 2.0 0.0 0.00 0.00 0.00 56 1013.5
20260506133548 31 208 2.0 0.0 0.00 0.00 0.00 56 1013.5
20260506133047 30 207 2.0 0.0 0.00 0.00 0.00 56 1013.5
20260506132545 30 207 2.0 0.0 0.00 0.00 0.00 57 1013.6
20260506132045 29 207 3.0 0.0 0.00 0.00 0.00 58 1013.6
20260506131551 29 207 3.0 0.0 0.00 0.00 0.00 58 1013.6
20260506131043 28 360 3.0 0.0 0.00 0.00 0.00 60 1013.7
20260506130541 28 202 3.0 0.0 0.00 0.00 0.00 61 1013.6
20260506130057 27 202 3.0 0.0 0.00 0.00 0.00 63 1013.6
20260506125538 26 202 1.0 0.0 0.00 0.00 0.00 66 1013.5
20260506125038 24 202 0.0 0.0 0.00 0.00 0.00 69 1013.6
20260506124536 23 202 0.0 0.0 0.00 0.00 0.00 71 1013.5
20260506124035 22 202 0.0 0.0 0.00 0.00 0.00 74 1013.5
20260506123534 21 202 0.0 0.0 0.00 0.00 0.00 74 1013.5
20260506123034 19 202 0.0 0.0 0.00 0.00 0.00 74 1013.5
20260506122535 18 202 0.0 0.0 0.00 0.00 0.00 75 1013.4
20260506122032 17 202 0.0 0.0 0.00 0.00 0.00 75 1013.4
20260506121534 17 202 0.0 0.0 0.00 0.00 0.00 75 1013.4
20260506121032 16 202 0.0 0.0 0.00 0.00 0.00 75 1013.4
20260506120534 15 202 0.0 0.0 0.00 0.00 0.00 76 1013.3
20260506120034 15 202 0.0 0.0 0.00 0.00 0.00 76 1013.2
20260506115530 15 202 0.0 0.0 0.00 0.00 0.00 76 1013.1
20260506115029 14 202 0.0 0.0 0.00 0.00 0.00 76 1013.1
20260506114534 14 202 0.0 0.0 0.00 0.00 0.00 76 1013.0
20260506114029 14 202 0.0 0.0 0.00 0.00 0.00 76 1013.0
20260506113529 14 202 0.0 0.0 0.00 0.00 0.00 76 1012.9
20260506113028 14 202 0.0 0.0 0.00 0.00 0.00 76 1012.9
20260506112528 14 202 0.0 0.0 0.00 0.00 0.00 76 1012.9
20260506112028 14 202 0.0 0.0 0.00 0.00 0.00 76 1012.8
20260506111528 14 202 0.0 0.0 0.00 0.00 0.00 76 1012.8
20260506111027 14 202 0.0 0.0 0.00 0.00 0.00 77 1012.8
20260506110530 13 202 1.0 0.0 0.00 0.00 0.00 76 1012.8
20260506110027 13 202 1.0 0.0 0.00 0.00 0.00 75 1012.8
20260506105526 14 202 0.0 0.0 0.00 0.00 0.00 76 1012.8
20260506105028 14 202 0.0 0.0 0.00 0.00 0.00 76 1012.8
20260506104528 14 202 0.0 0.0 0.00 0.00 0.00 75 1012.9
20260506104024 14 202 0.0 0.0 0.00 0.00 0.00 75 1012.8
20260506103524 14 202 0.0 0.0 0.00 0.00 0.00 75 1012.8
20260506103029 14 202 0.0 0.0 0.00 0.00 0.00 74 1012.8
20260506102523 14 202 0.0 0.0 0.00 0.00 0.00 74 1012.7
20260506102023 14 202 0.0 0.0 0.00 0.00 0.00 74 1012.6
20260506101539 14 202 0.0 0.0 0.00 0.00 0.00 74 1012.7
20260506101022 15 202 0.0 0.0 0.00 0.00 0.00 74 1012.6
20260506100522 15 202 0.0 0.0 0.00 0.00 0.00 74 1012.6
20260506100022 15 202 0.0 0.0 0.00 0.00 0.00 74 1012.6
20260506095522 15 202 1.0 0.0 0.00 0.00 0.00 75 1012.6
20260506095024 15 202 1.0 0.0 0.00 0.00 0.00 75 1012.6
20260506094525 14 202 2.0 0.0 0.00 0.00 0.00 74 1012.6
20260506094024 15 202 3.0 0.0 0.00 0.00 0.00 73 1012.5
20260506093519 15 202 2.0 0.0 0.00 0.00 0.00 73 1012.6
20260506093022 15 202 2.0 0.0 0.00 0.00 0.00 72 1012.6
20260506092518 15 202 1.0 0.0 0.00 0.00 0.00 72 1012.5
20260506092019 16 202 0.0 0.0 0.00 0.00 0.00 72 1012.6
20260506091518 16 202 0.0 0.0 0.00 0.00 0.00 72 1012.5
20260506091017 16 202 0.0 0.0 0.00 0.00 0.00 72 1012.5
20260506090516 16 202 0.0 0.0 0.00 0.00 0.00 72 1012.4
20260506090017 16 202 0.0 0.0 0.00 0.00 0.00 72 1012.4
20260506085516 16 202 0.0 0.0 0.00 0.00 0.00 72 1012.4
20260506085016 16 202 0.0 0.0 0.00 0.00 0.00 72 1012.5
20260506084517 16 202 1.0 0.0 0.00 0.00 0.00 72 1012.4
20260506084017 16 202 1.0 0.0 0.00 0.00 0.00 72 1012.5
20260506083517 16 202 1.0 0.0 0.00 0.00 0.00 72 1012.4
20260506083017 16 202 2.0 0.0 0.00 0.00 0.00 71 1012.4
20260506082515 16 202 1.0 0.0 0.00 0.00 0.00 71 1012.4
20260506082014 16 202 1.0 0.0 0.00 0.00 0.00 70 1012.4
20260506081514 16 202 2.0 0.0 0.00 0.00 0.00 70 1012.4
20260506081014 16 202 2.0 0.0 0.00 0.00 0.00 71 1012.4
20260506080514 16 360 1.0 0.0 0.00 0.00 0.00 70 1012.4
20260506073509 17 202 1.0 0.0 0.00 0.00 0.00 69 1012.4
20260506073018 17 202 1.0 0.0 0.00 0.00 0.00 69 1012.4
20260506072509 17 202 1.0 0.0 0.00 0.00 0.00 68 1012.4
20260506072007 17 202 1.0 0.0 0.00 0.00 0.00 68 1012.4
20260506071508 17 202 1.0 0.0 0.00 0.00 0.00 68 1012.4
20260506071010 18 202 2.0 0.0 0.00 0.00 0.00 68 1012.3
20260506070506 18 202 2.0 0.0 0.00 0.00 0.00 68 1012.3
20260506062057 20 202 1.0 0.0 0.00 0.00 0.00 62 1012.2
20260506061056 21 360 0.0 0.0 0.00 0.00 0.00 61 1012.1
20260506060554 22 202 0.0 0.0 0.00 0.00 0.00 60 1012.1
20260506051046 25 360 1.0 0.0 0.00 0.00 0.00 54 1011.7
20260506050544 26 360 0.0 0.0 0.00 0.00 0.00 54 1011.6
20260506045041 27 360 2.0 0.0 0.00 0.00 0.00 53 1011.4
20260506044631 28 360 2.0 0.0 0.00 0.00 0.00 50 1011.5
20260506044038 29 360 0.0 0.0 0.00 0.00 0.00 48 1011.5
20260506043537 30 360 0.0 0.0 0.00 0.00 0.00 49 1011.5
20260506043036 31 360 0.0 0.0 0.00 0.00 0.00 48 1011.5
20260506042535 32 360 0.0 0.0 0.00 0.00 0.00 48 1011.5
20260506042032 34 360 0.0 0.0 0.00 0.00 0.00 44 1011.5
20260506041032 35 360 0.0 0.0 0.00 0.00 0.00 45 1011.4
20260506040534 35 360 0.0 0.0 0.00 0.00 0.00 45 1011.4
20260506040032 35 360 1.0 0.0 0.00 0.00 0.00 44 1011.4
20260506035531 35 360 1.0 0.0 0.00 0.00 0.00 44 1011.4
20260506035033 35 360 1.0 0.0 0.00 0.00 0.00 45 1011.4
20260506034559 36 360 1.0 0.0 0.00 0.00 0.00 45 1011.3
20260506034032 36 360 1.0 0.0 0.00 0.00 0.00 45 1011.3
20260506033530 36 360 2.0 0.0 0.00 0.00 0.00 44 1011.3
20260506033032 37 360 3.0 0.0 0.00 0.00 0.00 44 1011.2
20260506032530 37 360 4.0 0.0 0.00 0.00 0.00 43 1011.2
20260506032029 39 360 5.0 0.0 0.00 0.00 0.00 41 1011.2
20260506031032 40 360 7.0 0.0 0.00 0.00 0.00 40 1011.1
20260506030529 41 360 7.0 0.0 0.00 0.00 0.00 39 1011.1
20260506030028 41 360 6.0 0.0 0.00 0.00 0.00 39 1011.0
20260506025530 41 360 5.0 0.0 0.00 0.00 0.00 39 1010.9
20260506025027 41 360 5.0 0.0 0.00 0.00 0.00 39 1010.8
20260506024528 41 360 4.0 0.0 0.00 0.00 0.00 40 1010.8
20260506024027 42 360 4.0 0.0 0.00 0.00 0.00 39 1010.7
20260506023526 42 360 4.0 0.0 0.00 0.00 0.00 39 1010.7
20260506023026 42 360 4.0 0.0 0.00 0.00 0.00 39 1010.6
20260506022526 42 360 4.0 0.0 0.00 0.00 0.00 39 1010.5
20260506022026 42 360 6.0 0.0 0.00 0.00 0.00 39 1010.5
20260506021026 43 360 8.0 0.0 0.00 0.00 0.00 37 1010.5
20260506020526 43 360 9.0 0.0 0.00 0.00 0.00 37 1010.5
20260506020025 43 360 10.0 0.0 0.00 0.00 0.00 36 1010.5
20260506015528 44 360 10.0 0.0 0.00 0.00 0.00 36 1010.4
20260506015029 44 360 10.0 0.0 0.00 0.00 0.00 37 1010.4
20260506014529 44 360 10.0 0.0 0.00 0.00 0.00 36 1010.3
20260506014025 44 360 9.0 0.0 0.00 0.00 0.00 36 1010.3
20260506013526 44 360 10.0 0.0 0.00 0.00 0.00 36 1010.2
20260506013025 45 360 9.0 0.0 0.00 0.00 0.00 36 1010.2
20260506012525 45 360 9.0 0.0 0.00 0.00 0.00 36 1010.2
20260506012026 45 360 10.0 0.0 0.00 0.00 0.00 36 1010.2
20260506011025 45 360 11.0 0.0 0.00 0.00 0.00 35 1010.2
20260506010525 45 360 11.0 0.0 0.00 0.00 0.00 35 1010.1
20260506010024 45 360 11.0 0.0 0.00 0.00 0.00 35 1010.1
20260506005524 45 360 9.0 0.0 0.00 0.00 0.00 35 1010.2
20260506005025 45 360 9.0 0.0 0.00 0.00 0.00 36 1010.1
20260506004534 45 360 10.0 0.0 0.00 0.00 0.00 36 1010.0
20260506004023 45 360 10.0 0.0 0.00 0.00 0.00 36 1009.9
20260506003523 45 360 10.0 0.0 0.00 0.00 0.00 36 1009.9
20260506003037 45 360 9.0 0.0 0.00 0.00 0.00 36 1010.0
20260506002523 45 360 9.0 0.0 0.00 0.00 0.00 36 1010.0
20260506002023 45 360 10.0 0.0 0.00 0.00 0.00 36 1010.1
20260506001024 46 360 9.0 0.0 0.00 0.00 0.00 36 1010.2
20260506000524 45 360 10.0 0.0 0.00 0.00 0.00 37 1010.2
20260506000026 45 360 11.0 0.0 0.00 0.00 0.00 36 1010.2
20260505235523 45 360 10.0 0.0 0.00 0.00 0.00 36 1010.2
20260505235024 45 360 10.0 0.0 0.00 0.00 0.00 36 1010.1
20260505234533 45 360 11.0 0.0 0.00 0.00 0.00 37 1010.2
20260505234029 45 360 12.0 0.0 0.00 0.00 0.00 37 1010.2
20260505233525 45 360 12.0 0.0 0.00 0.00 0.00 37 1010.1
20260505233022 45 360 12.0 0.0 0.00 0.00 0.00 37 1010.1
20260505232523 45 360 12.0 0.0 0.00 0.00 0.00 37 1010.1
20260505232023 45 360 14.0 0.0 0.00 0.00 0.00 38 1010.0
20260505231023 45 360 13.0 0.0 0.00 0.00 0.00 37 1010.0
20260505230522 45 360 13.0 0.0 0.00 0.00 0.00 37 1010.0
20260505230025 45 360 14.0 0.0 0.00 0.00 0.00 38 1010.0
20260505225526 45 360 14.0 0.0 0.00 0.00 0.00 37 1009.9
20260505225023 45 360 14.0 0.0 0.00 0.00 0.00 37 1009.9
20260505224522 45 360 14.0 0.0 0.00 0.00 0.00 37 1009.9
20260505224023 46 360 13.0 0.0 0.00 0.00 0.00 36 1010.0
20260505223522 46 360 13.0 0.0 0.00 0.00 0.00 36 1009.9
20260505223021 47 360 14.0 0.0 0.00 0.00 0.00 36 1009.9
20260505222524 46 360 14.0 0.0 0.00 0.00 0.00 37 1009.9
20260505222021 46 360 14.0 0.0 0.00 0.00 0.00 37 1009.9
20260505221021 46 360 12.0 0.0 0.00 0.00 0.00 36 1009.9
20260505220522 45 360 13.0 0.0 0.00 0.00 0.00 37 1009.9
20260505220029 45 360 14.0 0.0 0.00 0.00 0.00 37 1009.9
20260505215521 45 360 14.0 0.0 0.00 0.00 0.00 36 1009.9
20260505215021 45 360 13.0 0.0 0.00 0.00 0.00 36 1010.0
20260505214523 46 360 12.0 0.0 0.00 0.00 0.00 37 1010.0
20260505214021 45 360 12.0 0.0 0.00 0.00 0.00 36 1010.0
20260505213519 45 360 13.0 0.0 0.00 0.00 0.00 36 1010.0
20260505213021 46 360 13.0 0.0 0.00 0.00 0.00 36 1010.1
20260505212520 45 360 12.0 0.0 0.00 0.00 0.00 37 1010.1
20260505212019 45 360 14.0 0.0 0.00 0.00 0.00 37 1010.2
20260505211019 45 360 15.0 0.0 0.00 0.00 0.00 36 1010.2
20260505210519 46 360 12.0 0.0 0.00 0.00 0.00 36 1010.2
20260505210019 46 360 14.0 0.0 0.00 0.00 0.00 36 1010.3
20260505205518 46 360 13.0 0.0 0.00 0.00 0.00 38 1010.4
20260505205017 45 360 13.0 0.0 0.00 0.00 0.00 37 1010.3
20260505204516 44 360 12.0 0.0 0.00 0.00 0.00 38 1010.5
20260505204016 44 360 11.0 0.0 0.00 0.00 0.00 37 1010.4
20260505203516 45 360 13.0 0.0 0.00 0.00 0.00 38 1010.5
20260505203016 44 360 13.0 0.0 0.00 0.00 0.00 38 1010.3
20260505202516 45 360 12.0 0.0 0.00 0.00 0.00 38 1010.4
20260505202016 44 360 11.0 0.0 0.00 0.00 0.00 38 1010.4
20260505201015 44 360 12.0 0.0 0.00 0.00 0.00 38 1010.4
20260505200515 43 360 12.0 0.0 0.00 0.00 0.00 39 1010.4
20260505200015 43 360 13.0 0.0 0.00 0.00 0.00 39 1010.4
20260505195515 44 360 13.0 0.0 0.00 0.00 0.00 38 1010.5
20260505195017 44 360 11.0 0.0 0.00 0.00 0.00 38 1010.4
20260505194528 44 360 10.0 0.0 0.00 0.00 0.00 37 1010.5
20260505194014 44 360 10.0 0.0 0.00 0.00 0.00 38 1010.5
20260505193513 43 360 11.0 0.0 0.00 0.00 0.00 39 1010.4
20260505193031 44 360 13.0 0.0 0.00 0.00 0.00 39 1010.5
20260505192514 44 360 12.0 0.0 0.00 0.00 0.00 38 1010.4
20260505192014 44 360 12.0 0.0 0.00 0.00 0.00 38 1010.4
20260505191018 43 360 12.0 0.0 0.00 0.00 0.00 39 1010.4
20260505190513 43 360 12.0 0.0 0.00 0.00 0.00 39 1010.3
20260505190013 43 360 12.0 0.0 0.00 0.00 0.00 39 1010.4
20260505185513 43 360 12.0 0.0 0.00 0.00 0.00 40 1010.3
20260505185015 43 360 12.0 0.0 0.00 0.00 0.00 40 1010.3
20260505184513 43 360 12.0 0.0 0.00 0.00 0.00 40 1010.3
20260505184015 42 360 12.0 0.0 0.00 0.00 0.00 40 1010.4
20260505183513 42 360 12.0 0.0 0.00 0.00 0.00 40 1010.3
20260505183014 42 360 12.0 0.0 0.00 0.00 0.00 39 1010.3